GTI3738 MMMX-KDEN

Flight info

Callsign GTI3738
Flight time 2h 51m
Altitude 35000
Route AXIRI2A AXIRI UT137 MTY UJ45 PNG DCT DENSE DCT SJT DCT BRHMA DCT PNH DCT ZIGEE NIIXX4
Aircraft B77L/H-SDE1E2E3FGHIJ2J3J4J5M1RWXY/LB1D1

Departure

Time 2026-05-07 20:36
Airport Mexico City Benito Juárez International Airport (MMMX)

Arrival

Time 2026-05-07 23:27
Airport Denver International Airport (KDEN)
Time Latitude Longitude Altitude Speed Heading
2026-05-07 20:03 19.44088 -99.07230 7355 ft 0 kts 330°
2026-05-07 20:21 19.44081 -99.07227 7354 ft 2 kts 330°
2026-05-07 20:21 19.44069 -99.07219 7355 ft 1 kts 330°
2026-05-07 20:21 19.44060 -99.07214 7355 ft 2 kts 324°
2026-05-07 20:21 19.44050 -99.07203 7355 ft 2 kts 304°
2026-05-07 20:22 19.44043 -99.07189 7355 ft 2 kts 288°
2026-05-07 20:22 19.44039 -99.07174 7355 ft 2 kts 272°
2026-05-07 20:22 19.44040 -99.07158 7355 ft 2 kts 256°
2026-05-07 20:22 19.44045 -99.07144 7355 ft 0 kts 240°
2026-05-07 20:23 19.44047 -99.07140 7355 ft 0 kts 239°
2026-05-07 20:26 19.44041 -99.07148 7355 ft 2 kts 217°
2026-05-07 20:26 19.44019 -99.07151 7355 ft 4 kts 166°
2026-05-07 20:26 19.43987 -99.07139 7355 ft 5 kts 180°
2026-05-07 20:27 19.43952 -99.07166 7355 ft 7 kts 237°
2026-05-07 20:27 19.43921 -99.07217 7353 ft 9 kts 238°
2026-05-07 20:27 19.43885 -99.07280 7353 ft 9 kts 239°
2026-05-07 20:27 19.43850 -99.07343 7353 ft 9 kts 239°
2026-05-07 20:28 19.43812 -99.07409 7351 ft 11 kts 239°
2026-05-07 20:28 19.43769 -99.07486 7350 ft 12 kts 239°
2026-05-07 20:28 19.43727 -99.07559 7350 ft 11 kts 239°
2026-05-07 20:28 19.43691 -99.07622 7352 ft 9 kts 239°
2026-05-07 20:29 19.43651 -99.07695 7354 ft 14 kts 239°
2026-05-07 20:29 19.43586 -99.07812 7358 ft 21 kts 239°
2026-05-07 20:29 19.43508 -99.07951 7360 ft 21 kts 239°
2026-05-07 20:29 19.43434 -99.08084 7363 ft 19 kts 239°
2026-05-07 20:30 19.43364 -99.08209 7365 ft 19 kts 239°
2026-05-07 20:30 19.43299 -99.08324 7366 ft 17 kts 239°
2026-05-07 20:30 19.43231 -99.08443 7364 ft 19 kts 239°
2026-05-07 20:30 19.43161 -99.08569 7363 ft 20 kts 239°
2026-05-07 20:31 19.43085 -99.08706 7359 ft 23 kts 240°
2026-05-07 20:31 19.42998 -99.08862 7353 ft 25 kts 239°
2026-05-07 20:31 19.42919 -99.08997 7349 ft 16 kts 231°
2026-05-07 20:31 19.42866 -99.09045 7348 ft 8 kts 209°
2026-05-07 20:32 19.42805 -99.09077 7347 ft 10 kts 201°
2026-05-07 20:32 19.42726 -99.09068 7346 ft 11 kts 149°
2026-05-07 20:32 19.42694 -99.09012 7345 ft 7 kts 95°
2026-05-07 20:32 19.42694 -99.08955 7346 ft 9 kts 90°
2026-05-07 20:33 19.42691 -99.08878 7347 ft 12 kts 94°
2026-05-07 20:33 19.42684 -99.08781 7349 ft 13 kts 94°
2026-05-07 20:33 19.42677 -99.08694 7350 ft 9 kts 95°
2026-05-07 20:33 19.42675 -99.08640 7351 ft 4 kts 85°
2026-05-07 20:34 19.42679 -99.08625 7351 ft 0 kts 59°
2026-05-07 20:34 19.42683 -99.08619 7352 ft 3 kts 59°
2026-05-07 20:34 19.42748 -99.08505 7354 ft 41 kts 59°
2026-05-07 20:35 19.42987 -99.08079 7359 ft 93 kts 60°
2026-05-07 20:35 19.43415 -99.07313 7347 ft 144 kts 60°
2026-05-07 20:35 19.44004 -99.06261 7340 ft 188 kts 59°
2026-05-07 20:35 19.44730 -99.04999 7522 ft 206 kts 57°
2026-05-07 20:36 19.45503 -99.03725 8094 ft 205 kts 55°
2026-05-07 20:36 19.46296 -99.02477 8637 ft 207 kts 57°
2026-05-07 20:36 19.47072 -99.01160 9189 ft 213 kts 58°
2026-05-07 20:36 19.47850 -98.99844 9832 ft 214 kts 57°
2026-05-07 20:37 19.48661 -98.98492 10223 ft 224 kts 57°
2026-05-07 20:37 19.49524 -98.97045 10631 ft 235 kts 58°
2026-05-07 20:37 19.50380 -98.95548 11092 ft 243 kts 59°
2026-05-07 20:37 19.51254 -98.93955 11435 ft 260 kts 60°
2026-05-07 20:38 19.52190 -98.92252 11739 ft 279 kts 59°
2026-05-07 20:38 19.53231 -98.90458 12210 ft 291 kts 52°
2026-05-07 20:38 19.54545 -98.88832 12946 ft 292 kts 47°
2026-05-07 20:38 19.55922 -98.87255 13673 ft 293 kts 47°
2026-05-07 20:39 19.57315 -98.85661 14293 ft 297 kts 48°
2026-05-07 20:39 19.58725 -98.84038 14878 ft 302 kts 48°
2026-05-07 20:39 19.60139 -98.82408 15506 ft 305 kts 49°
2026-05-07 20:39 19.61580 -98.80745 16106 ft 309 kts 49°
2026-05-07 20:40 19.63046 -98.79053 16683 ft 313 kts 49°
2026-05-07 20:40 19.64506 -98.77367 17218 ft 317 kts 49°
2026-05-07 20:40 19.66010 -98.75629 17715 ft 322 kts 49°
2026-05-07 20:40 19.67590 -98.73850 17905 ft 340 kts 45°
2026-05-07 20:41 19.69456 -98.72231 18052 ft 358 kts 35°
2026-05-07 20:41 19.71681 -98.70872 18180 ft 377 kts 25°
2026-05-07 20:41 19.74189 -98.69907 18360 ft 393 kts 15°
2026-05-07 20:41 19.76948 -98.69427 18715 ft 403 kts
2026-05-07 20:42 19.79761 -98.69265 19273 ft 406 kts
2026-05-07 20:42 19.82598 -98.69115 19861 ft 407 kts
2026-05-07 20:42 19.85423 -98.68954 20359 ft 411 kts
2026-05-07 20:42 19.88316 -98.68780 20762 ft 417 kts
2026-05-07 20:43 19.91241 -98.68608 21208 ft 422 kts
2026-05-07 20:43 19.94157 -98.68777 21652 ft 426 kts 352°
2026-05-07 20:43 19.97087 -98.69491 22118 ft 430 kts 341°
2026-05-07 20:43 19.99828 -98.70719 22613 ft 432 kts 331°
2026-05-07 20:44 20.02390 -98.72439 23086 ft 434 kts 323°
2026-05-07 20:44 20.04829 -98.74311 23620 ft 435 kts 322°
2026-05-07 20:44 20.07284 -98.76211 24139 ft 436 kts 322°
2026-05-07 20:44 20.09741 -98.78114 24599 ft 437 kts 322°
2026-05-07 20:45 20.12202 -98.80019 24977 ft 440 kts 322°
2026-05-07 20:45 20.14699 -98.81952 25318 ft 443 kts 322°
2026-05-07 20:45 20.17199 -98.83903 25680 ft 445 kts 321°
2026-05-07 20:45 20.19678 -98.85848 26064 ft 446 kts 321°
2026-05-07 20:46 20.22168 -98.87802 26404 ft 447 kts 321°
2026-05-07 20:46 20.24672 -98.89769 26686 ft 449 kts 321°
2026-05-07 20:46 20.27098 -98.91887 26936 ft 451 kts 317°
2026-05-07 20:46 20.29489 -98.94077 27264 ft 451 kts 317°
2026-05-07 20:47 20.31854 -98.96240 27565 ft 452 kts 317°
2026-05-07 20:47 20.34236 -98.98411 27816 ft 453 kts 317°
2026-05-07 20:47 20.36659 -99.00614 28084 ft 454 kts 317°
2026-05-07 20:47 20.39068 -99.02801 28334 ft 455 kts 317°
2026-05-07 20:48 20.41570 -99.04875 28543 ft 458 kts 324°
2026-05-07 20:48 20.44359 -99.06551 28720 ft 463 kts 333°
2026-05-07 20:48 20.47410 -99.07772 28864 ft 468 kts 342°
2026-05-07 20:48 20.50597 -99.08508 29054 ft 470 kts 348°
2026-05-07 20:49 20.53813 -99.09087 29256 ft 471 kts 348°
2026-05-07 20:49 20.60318 -99.10242 29284 ft 475 kts 348°
2026-05-07 20:49 20.63618 -99.10833 29388 ft 478 kts 348°
2026-05-07 20:50 20.66893 -99.11420 29664 ft 483 kts 348°
2026-05-07 20:50 20.70252 -99.12025 29757 ft 494 kts 348°
2026-05-07 20:50 20.73685 -99.12643 29862 ft 503 kts 348°
2026-05-07 20:50 20.77136 -99.13265 30226 ft 506 kts 348°
2026-05-07 20:51 20.80612 -99.13892 30820 ft 504 kts 348°
2026-05-07 20:51 20.84064 -99.14515 31476 ft 500 kts 348°
2026-05-07 20:51 20.87498 -99.15135 32086 ft 497 kts 348°
2026-05-07 20:51 20.90899 -99.15750 32555 ft 497 kts 348°
2026-05-07 20:52 20.94340 -99.16373 32972 ft 498 kts 348°
2026-05-07 20:52 20.97754 -99.16986 33465 ft 498 kts 347°
2026-05-07 20:52 21.01151 -99.17602 34035 ft 496 kts 347°
2026-05-07 20:52 21.04565 -99.18222 34650 ft 493 kts 347°
2026-05-07 20:53 21.07936 -99.18835 35111 ft 493 kts 347°
2026-05-07 20:53 21.14702 -99.20065 35095 ft 490 kts 347°
2026-05-07 20:54 21.21401 -99.21284 35086 ft 489 kts 347°
2026-05-07 20:54 21.28127 -99.22508 35078 ft 488 kts 347°
2026-05-07 20:55 21.34801 -99.23724 35078 ft 487 kts 346°
2026-05-07 20:55 21.41522 -99.24949 35076 ft 487 kts 346°
2026-05-07 20:56 21.48194 -99.26166 35074 ft 487 kts 346°
2026-05-07 20:56 21.54901 -99.27392 35061 ft 488 kts 346°
2026-05-07 20:57 21.61606 -99.28618 34996 ft 488 kts 346°
2026-05-07 20:57 21.68264 -99.29836 34942 ft 485 kts 346°
2026-05-07 20:58 21.74957 -99.31062 34895 ft 486 kts 346°
2026-05-07 20:58 21.81640 -99.32288 34888 ft 486 kts 346°
2026-05-07 20:59 21.88305 -99.33511 34906 ft 486 kts 346°
2026-05-07 20:59 21.94969 -99.34735 34907 ft 484 kts 346°
2026-05-07 21:00 22.01584 -99.35952 34926 ft 485 kts 346°
2026-05-07 21:00 22.08268 -99.37182 34953 ft 483 kts 346°
2026-05-07 21:01 22.14884 -99.38401 34960 ft 484 kts 346°
2026-05-07 21:01 22.21533 -99.39628 34974 ft 484 kts 346°
2026-05-07 21:02 22.28176 -99.40854 34994 ft 483 kts 346°
2026-05-07 21:02 22.34775 -99.42073 34997 ft 482 kts 346°
2026-05-07 21:03 22.41437 -99.43306 34986 ft 483 kts 346°
2026-05-07 21:03 22.48032 -99.44527 34990 ft 482 kts 346°
2026-05-07 21:04 22.54640 -99.45787 35002 ft 482 kts 345°
2026-05-07 21:04 22.61259 -99.47087 35021 ft 482 kts 345°
2026-05-07 21:05 22.67867 -99.48383 35044 ft 482 kts 345°
2026-05-07 21:05 22.74453 -99.49675 35071 ft 480 kts 345°
2026-05-07 21:06 22.81072 -99.50974 35080 ft 483 kts 345°
2026-05-07 21:06 22.87674 -99.52271 35071 ft 479 kts 345°
2026-05-07 21:07 22.94249 -99.53563 35065 ft 481 kts 345°
2026-05-07 21:07 23.00812 -99.54854 35098 ft 480 kts 345°
2026-05-07 21:08 23.07377 -99.56146 35095 ft 479 kts 345°
2026-05-07 21:08 23.13946 -99.57441 35099 ft 479 kts 345°
2026-05-07 21:09 23.20537 -99.58741 35122 ft 479 kts 345°
2026-05-07 21:09 23.27095 -99.60036 35138 ft 481 kts 345°
2026-05-07 21:10 23.33674 -99.61337 35150 ft 481 kts 345°
2026-05-07 21:10 23.40286 -99.62645 35165 ft 481 kts 345°
2026-05-07 21:11 23.46885 -99.63951 35167 ft 483 kts 345°
2026-05-07 21:11 23.56791 -99.65912 35205 ft 481 kts 344°
2026-05-07 21:12 23.63388 -99.67221 35219 ft 484 kts 344°
2026-05-07 21:12 23.69984 -99.68529 35247 ft 481 kts 344°
2026-05-07 21:13 23.76578 -99.69840 35261 ft 485 kts 344°
2026-05-07 21:13 23.83235 -99.71164 35264 ft 482 kts 344°
2026-05-07 21:14 23.89824 -99.72476 35275 ft 484 kts 345°
2026-05-07 21:14 23.96510 -99.73810 35260 ft 486 kts 344°
2026-05-07 21:15 24.03110 -99.75126 35265 ft 483 kts 344°
2026-05-07 21:15 24.09762 -99.76455 35233 ft 485 kts 344°
2026-05-07 21:16 24.16390 -99.77779 35223 ft 484 kts 344°
2026-05-07 21:16 24.23045 -99.79113 35200 ft 486 kts 344°
2026-05-07 21:17 24.29681 -99.80441 35198 ft 485 kts 344°
2026-05-07 21:17 24.36321 -99.81773 35192 ft 484 kts 344°
2026-05-07 21:18 24.42967 -99.83108 35205 ft 484 kts 344°
2026-05-07 21:18 24.49588 -99.84440 35230 ft 487 kts 344°
2026-05-07 21:19 24.56302 -99.85790 35212 ft 486 kts 344°
2026-05-07 21:19 24.62927 -99.87125 35197 ft 486 kts 344°
2026-05-07 21:20 24.69559 -99.88462 35188 ft 485 kts 344°
2026-05-07 21:20 24.76209 -99.89806 35170 ft 487 kts 344°
2026-05-07 21:21 24.82906 -99.91158 35162 ft 486 kts 344°
2026-05-07 21:21 24.89544 -99.92502 35159 ft 486 kts 344°
2026-05-07 21:22 24.96224 -99.93855 35168 ft 488 kts 343°
2026-05-07 21:22 25.02887 -99.95207 35157 ft 488 kts 344°
2026-05-07 21:23 25.09578 -99.96565 35125 ft 490 kts 343°
2026-05-07 21:23 25.16289 -99.97929 35079 ft 490 kts 343°
2026-05-07 21:24 25.22983 -99.99290 35037 ft 489 kts 343°
2026-05-07 21:24 25.29692 -100.00657 35011 ft 488 kts 343°
2026-05-07 21:25 25.36395 -100.02023 35011 ft 487 kts 343°
2026-05-07 21:25 25.43063 -100.03384 35017 ft 488 kts 343°
2026-05-07 21:26 25.49731 -100.04748 35011 ft 488 kts 343°
2026-05-07 21:26 25.56417 -100.06116 35007 ft 488 kts 343°
2026-05-07 21:27 25.63108 -100.07488 34993 ft 490 kts 343°
2026-05-07 21:27 25.69819 -100.08863 34981 ft 490 kts 343°
2026-05-07 21:28 25.76550 -100.10245 34975 ft 491 kts 343°
2026-05-07 21:28 25.83304 -100.11365 34980 ft 493 kts 346°
2026-05-07 21:29 25.90159 -100.12348 34977 ft 494 kts 346°
2026-05-07 21:29 25.96923 -100.13332 34984 ft 494 kts 346°
2026-05-07 21:30 26.03772 -100.14341 34987 ft 495 kts 346°
2026-05-07 21:30 26.10601 -100.15352 34983 ft 494 kts 345°
2026-05-07 21:31 26.17426 -100.16364 34989 ft 492 kts 345°
2026-05-07 21:31 26.24219 -100.17378 34999 ft 495 kts 345°
2026-05-07 21:32 26.31043 -100.18394 34993 ft 492 kts 345°
2026-05-07 21:32 26.37850 -100.19412 34975 ft 494 kts 345°
2026-05-07 21:33 26.44644 -100.20429 34967 ft 494 kts 345°
2026-05-07 21:33 26.51482 -100.21454 34948 ft 493 kts 345°
2026-05-07 21:34 26.58261 -100.22471 34945 ft 493 kts 345°
2026-05-07 21:34 26.65083 -100.23496 34947 ft 495 kts 345°
2026-05-07 21:35 26.71930 -100.24525 34946 ft 493 kts 345°
2026-05-07 21:35 26.78747 -100.25552 34946 ft 494 kts 345°
2026-05-07 21:36 26.85547 -100.26577 34942 ft 495 kts 345°
2026-05-07 21:36 26.92390 -100.27610 34928 ft 493 kts 345°
2026-05-07 21:37 26.99197 -100.28638 34930 ft 494 kts 345°
2026-05-07 21:37 27.06037 -100.29675 34929 ft 497 kts 344°
2026-05-07 21:38 27.12856 -100.30708 34913 ft 493 kts 345°
2026-05-07 21:38 27.19718 -100.31752 34922 ft 498 kts 344°
2026-05-07 21:39 27.26533 -100.32787 34916 ft 494 kts 344°
2026-05-07 21:39 27.33377 -100.33829 34923 ft 495 kts 344°
2026-05-07 21:40 27.40210 -100.34870 34930 ft 495 kts 344°
2026-05-07 21:40 27.47063 -100.35916 34931 ft 496 kts 344°
2026-05-07 21:41 27.53891 -100.36959 34939 ft 494 kts 344°
2026-05-07 21:41 27.60744 -100.38008 34942 ft 498 kts 344°
2026-05-07 21:42 27.67555 -100.39050 34945 ft 494 kts 343°
2026-05-07 21:42 27.74371 -100.40095 34953 ft 495 kts 344°
2026-05-07 21:43 27.81196 -100.41142 34954 ft 493 kts 343°
2026-05-07 21:43 27.87984 -100.42187 34957 ft 494 kts 343°
2026-05-07 21:44 27.94834 -100.43242 34962 ft 494 kts 343°
2026-05-07 21:44 28.01651 -100.44292 34960 ft 494 kts 343°
2026-05-07 21:45 28.08481 -100.45348 34953 ft 496 kts 343°
2026-05-07 21:45 28.15336 -100.46406 34948 ft 496 kts 343°
2026-05-07 21:46 28.22189 -100.47467 34945 ft 497 kts 343°
2026-05-07 21:46 28.29016 -100.48525 34953 ft 499 kts 343°
2026-05-07 21:47 28.35920 -100.49595 34965 ft 497 kts 343°
2026-05-07 21:47 28.42771 -100.50660 34984 ft 500 kts 343°
2026-05-07 21:48 28.49645 -100.51727 34990 ft 496 kts 343°
2026-05-07 21:48 28.56486 -100.52793 35002 ft 498 kts 343°
2026-05-07 21:49 28.63334 -100.53861 35002 ft 496 kts 343°
2026-05-07 21:49 28.70214 -100.54906 35003 ft 499 kts 343°
2026-05-07 21:50 28.77057 -100.55936 35005 ft 497 kts 343°
2026-05-07 21:50 28.83967 -100.56984 35006 ft 500 kts 343°
2026-05-07 21:51 28.90819 -100.58021 35009 ft 499 kts 343°
2026-05-07 21:51 28.97707 -100.59065 35006 ft 496 kts 343°
2026-05-07 21:52 29.04561 -100.60110 35007 ft 500 kts 343°
2026-05-07 21:52 29.11462 -100.61158 35007 ft 498 kts 343°
2026-05-07 21:53 29.18403 -100.62041 34995 ft 506 kts 351°
2026-05-07 21:53 29.25454 -100.61645 34993 ft 513 kts 355°
2026-05-07 21:54 29.32609 -100.61102 35005 ft 515 kts 356°
2026-05-07 21:54 29.39712 -100.60566 35002 ft 516 kts 355°
2026-05-07 21:55 29.46853 -100.60027 35009 ft 514 kts 356°
2026-05-07 21:55 29.53992 -100.59491 35014 ft 513 kts 355°
2026-05-07 21:56 29.61134 -100.58955 35023 ft 514 kts 355°
2026-05-07 21:56 29.68237 -100.58421 35028 ft 511 kts 355°
2026-05-07 21:57 29.75334 -100.57887 35035 ft 512 kts 355°
2026-05-07 21:57 29.82510 -100.57349 35047 ft 515 kts 355°
2026-05-07 21:58 29.89633 -100.56811 35043 ft 515 kts 355°
2026-05-07 21:58 29.96795 -100.56271 35045 ft 515 kts 355°
2026-05-07 21:59 30.03900 -100.55731 35050 ft 513 kts 355°
2026-05-07 21:59 30.11051 -100.55190 35047 ft 512 kts 355°
2026-05-07 22:00 30.18155 -100.54652 35047 ft 513 kts 355°
2026-05-07 22:00 30.25316 -100.54109 35051 ft 514 kts 355°
2026-05-07 22:01 30.32409 -100.53568 35046 ft 510 kts 355°
2026-05-07 22:01 30.39516 -100.53029 35056 ft 513 kts 355°
2026-05-07 22:02 30.46652 -100.52484 35063 ft 513 kts 355°
2026-05-07 22:02 30.53771 -100.51942 35059 ft 514 kts 355°
2026-05-07 22:03 30.60931 -100.51395 35061 ft 517 kts 355°
2026-05-07 22:03 30.68092 -100.50845 35060 ft 515 kts 355°
2026-05-07 22:04 30.75263 -100.50294 35071 ft 515 kts 355°
2026-05-07 22:04 30.82393 -100.49746 35062 ft 514 kts 355°
2026-05-07 22:05 30.89505 -100.49200 35057 ft 514 kts 355°
2026-05-07 22:05 30.96695 -100.48646 35063 ft 514 kts 355°
2026-05-07 22:06 31.03893 -100.48093 35067 ft 522 kts 355°
2026-05-07 22:06 31.11064 -100.47535 35059 ft 514 kts 355°
2026-05-07 22:07 31.18229 -100.46982 35048 ft 518 kts 355°
2026-05-07 22:07 31.25363 -100.46428 35044 ft 515 kts 355°
2026-05-07 22:08 31.32608 -100.45868 35032 ft 520 kts 354°
2026-05-07 22:08 31.39696 -100.46149 35023 ft 504 kts 339°
2026-05-07 22:09 31.46479 -100.47888 35028 ft 498 kts 336°
2026-05-07 22:09 31.53171 -100.49681 35044 ft 495 kts 336°
2026-05-07 22:10 31.59941 -100.51503 35045 ft 495 kts 336°
2026-05-07 22:10 31.66600 -100.53294 35037 ft 493 kts 336°
2026-05-07 22:11 31.73354 -100.55118 35044 ft 497 kts 336°
2026-05-07 22:11 31.80030 -100.56917 35043 ft 492 kts 336°
2026-05-07 22:12 31.86778 -100.58746 35053 ft 502 kts 336°
2026-05-07 22:12 31.93675 -100.60619 35048 ft 516 kts 336°
2026-05-07 22:13 32.00688 -100.62520 35048 ft 521 kts 336°
2026-05-07 22:13 32.07789 -100.64444 35047 ft 521 kts 336°
2026-05-07 22:14 32.14849 -100.66361 35049 ft 522 kts 336°
2026-05-07 22:14 32.21919 -100.68283 35054 ft 519 kts 336°
2026-05-07 22:15 32.28954 -100.70204 35058 ft 521 kts 336°
2026-05-07 22:15 32.36007 -100.72131 35059 ft 522 kts 335°
2026-05-07 22:16 32.43116 -100.74078 35060 ft 524 kts 335°
2026-05-07 22:16 32.50146 -100.76002 35058 ft 522 kts 336°
2026-05-07 22:17 32.57198 -100.77937 35061 ft 519 kts 335°
2026-05-07 22:17 32.64277 -100.79886 35063 ft 523 kts 335°
2026-05-07 22:18 32.74811 -100.82785 35070 ft 516 kts 335°
2026-05-07 22:19 32.81895 -100.84747 35077 ft 523 kts 335°
2026-05-07 22:19 32.88948 -100.86695 35069 ft 520 kts 335°
2026-05-07 22:20 32.95974 -100.88640 35061 ft 518 kts 335°
2026-05-07 22:20 33.02980 -100.90583 35064 ft 515 kts 335°
2026-05-07 22:21 33.09935 -100.92519 35066 ft 519 kts 335°
2026-05-07 22:21 33.16968 -100.94476 35039 ft 516 kts 335°
2026-05-07 22:22 33.23985 -100.96434 35043 ft 518 kts 335°
2026-05-07 22:22 33.30960 -100.98380 35043 ft 516 kts 335°
2026-05-07 22:23 33.37975 -101.00343 35052 ft 516 kts 335°
2026-05-07 22:23 33.44915 -101.02284 35052 ft 509 kts 335°
2026-05-07 22:24 33.51846 -101.04234 35056 ft 514 kts 336°
2026-05-07 22:24 33.58613 -101.06599 35065 ft 506 kts 330°
2026-05-07 22:25 33.65292 -101.09169 35071 ft 504 kts 331°
2026-05-07 22:25 33.71962 -101.11714 35078 ft 502 kts 331°
2026-05-07 22:26 33.78624 -101.14248 35079 ft 506 kts 331°
2026-05-07 22:26 33.85275 -101.16765 35079 ft 500 kts 331°
2026-05-07 22:27 33.91946 -101.19295 35081 ft 503 kts 331°
2026-05-07 22:27 33.98616 -101.21823 35082 ft 502 kts 332°
2026-05-07 22:28 34.05270 -101.24348 35080 ft 500 kts 332°
2026-05-07 22:28 34.11910 -101.26872 35071 ft 501 kts 332°
2026-05-07 22:29 34.18544 -101.29398 35063 ft 503 kts 332°
2026-05-07 22:29 34.25190 -101.31930 35057 ft 500 kts 332°
2026-05-07 22:30 34.31821 -101.34462 35057 ft 502 kts 332°
2026-05-07 22:30 34.38457 -101.36997 35051 ft 497 kts 332°
2026-05-07 22:31 34.45083 -101.39538 35057 ft 500 kts 332°
2026-05-07 22:31 34.51658 -101.42057 35058 ft 494 kts 332°
2026-05-07 22:32 34.58232 -101.44588 35053 ft 498 kts 332°
2026-05-07 22:32 34.64822 -101.47121 35055 ft 494 kts 332°
2026-05-07 22:33 34.71374 -101.49650 35052 ft 498 kts 332°
2026-05-07 22:33 34.77982 -101.52202 35051 ft 497 kts 332°
2026-05-07 22:34 34.84556 -101.54744 35047 ft 495 kts 332°
2026-05-07 22:34 34.91098 -101.57279 35042 ft 495 kts 332°
2026-05-07 22:35 34.97664 -101.59829 35050 ft 496 kts 333°
2026-05-07 22:35 35.04213 -101.62375 35055 ft 494 kts 333°
2026-05-07 22:36 35.10753 -101.64922 35053 ft 492 kts 333°
2026-05-07 22:36 35.17319 -101.67487 35065 ft 499 kts 332°
2026-05-07 22:37 35.23889 -101.70052 35073 ft 496 kts 333°
2026-05-07 22:37 35.30309 -101.72942 35063 ft 490 kts 329°
2026-05-07 22:38 35.36728 -101.75935 35058 ft 493 kts 330°
2026-05-07 22:38 35.43102 -101.78891 35054 ft 493 kts 330°
2026-05-07 22:39 35.49518 -101.81863 35046 ft 491 kts 330°
2026-05-07 22:39 35.55896 -101.84816 35059 ft 491 kts 330°
2026-05-07 22:40 35.62273 -101.87774 35063 ft 492 kts 331°
2026-05-07 22:40 35.68634 -101.90725 35063 ft 489 kts 331°
2026-05-07 22:41 35.75017 -101.93692 35059 ft 490 kts 332°
2026-05-07 22:41 35.81389 -101.96658 35061 ft 488 kts 332°
2026-05-07 22:42 35.87737 -101.99618 35067 ft 490 kts 332°
2026-05-07 22:42 35.94094 -102.02587 35074 ft 488 kts 332°
2026-05-07 22:43 36.00433 -102.05554 35063 ft 491 kts 333°
2026-05-07 22:43 36.06781 -102.08527 35064 ft 487 kts 333°
2026-05-07 22:44 36.13114 -102.11500 35065 ft 485 kts 333°
2026-05-07 22:44 36.19401 -102.14458 35069 ft 486 kts 333°
2026-05-07 22:45 36.25720 -102.17433 35062 ft 481 kts 333°
2026-05-07 22:45 36.31953 -102.20376 35068 ft 483 kts 333°
2026-05-07 22:46 36.38207 -102.23332 35062 ft 480 kts 334°
2026-05-07 22:46 36.44441 -102.26284 35063 ft 481 kts 334°
2026-05-07 22:47 36.50661 -102.29235 35062 ft 478 kts 334°
2026-05-07 22:47 36.56887 -102.32194 35057 ft 479 kts 334°
2026-05-07 22:48 36.63089 -102.35146 35064 ft 478 kts 334°
2026-05-07 22:48 36.69270 -102.38092 35068 ft 476 kts 335°
2026-05-07 22:49 36.75439 -102.41039 35064 ft 476 kts 335°
2026-05-07 22:49 36.81588 -102.43981 35068 ft 475 kts 335°
2026-05-07 22:50 36.87751 -102.46935 35066 ft 473 kts 335°
2026-05-07 22:50 36.93889 -102.49882 35050 ft 474 kts 335°
2026-05-07 22:51 37.00044 -102.52842 35052 ft 473 kts 335°
2026-05-07 22:51 37.06185 -102.55801 35053 ft 473 kts 335°
2026-05-07 22:52 37.12285 -102.58744 35049 ft 470 kts 335°
2026-05-07 22:52 37.18392 -102.61697 35055 ft 470 kts 335°
2026-05-07 22:53 37.24471 -102.64641 35059 ft 469 kts 335°
2026-05-07 22:53 37.30523 -102.67577 35065 ft 467 kts 335°
2026-05-07 22:54 37.36594 -102.70528 35069 ft 466 kts 335°
2026-05-07 22:54 37.42626 -102.73464 35066 ft 465 kts 335°
2026-05-07 22:55 37.48651 -102.76402 35062 ft 465 kts 335°
2026-05-07 22:55 37.54651 -102.79398 35064 ft 462 kts 333°
2026-05-07 22:56 37.60551 -102.82577 35060 ft 462 kts 333°
2026-05-07 22:56 37.66443 -102.85753 35056 ft 465 kts 333°
2026-05-07 22:57 37.72350 -102.88931 35052 ft 459 kts 333°
2026-05-07 22:57 37.78236 -102.92101 35050 ft 462 kts 333°
2026-05-07 22:58 37.84150 -102.95290 35041 ft 460 kts 333°
2026-05-07 22:58 37.90030 -102.98464 35028 ft 459 kts 333°
2026-05-07 22:59 37.95870 -103.01621 35025 ft 457 kts 333°
2026-05-07 22:59 38.01698 -103.04777 35017 ft 455 kts 334°
2026-05-07 23:00 38.07526 -103.07939 35023 ft 456 kts 334°
2026-05-07 23:00 38.13360 -103.11109 35035 ft 455 kts 334°
2026-05-07 23:01 38.19180 -103.14278 35039 ft 455 kts 334°
2026-05-07 23:01 38.24974 -103.17436 35050 ft 450 kts 334°
2026-05-07 23:02 38.30735 -103.20584 35039 ft 454 kts 334°
2026-05-07 23:02 38.36539 -103.23759 35047 ft 452 kts 334°
2026-05-07 23:03 38.42288 -103.26923 35042 ft 449 kts 333°
2026-05-07 23:03 38.47922 -103.30039 34439 ft 437 kts 334°
2026-05-07 23:03 38.50681 -103.31567 33845 ft 433 kts 334°
2026-05-07 23:04 38.53428 -103.33089 33248 ft 429 kts 333°
2026-05-07 23:04 38.56147 -103.34598 32661 ft 425 kts 333°
2026-05-07 23:04 38.58847 -103.36097 32072 ft 421 kts 333°
2026-05-07 23:04 38.61512 -103.37578 31487 ft 418 kts 333°
2026-05-07 23:05 38.64159 -103.39050 30901 ft 414 kts 333°
2026-05-07 23:05 38.66799 -103.40519 30301 ft 411 kts 333°
2026-05-07 23:05 38.69382 -103.41957 29722 ft 408 kts 333°
2026-05-07 23:05 38.71972 -103.43401 29134 ft 405 kts 333°
2026-05-07 23:06 38.74541 -103.44834 28550 ft 402 kts 333°
2026-05-07 23:06 38.77091 -103.46258 27964 ft 399 kts 333°
2026-05-07 23:06 38.79555 -103.47835 27367 ft 393 kts 326°
2026-05-07 23:06 38.81773 -103.49799 26768 ft 388 kts 319°
2026-05-07 23:07 38.83731 -103.52115 26169 ft 383 kts 312°
2026-05-07 23:07 38.85521 -103.54618 25577 ft 381 kts 311°
2026-05-07 23:07 38.87293 -103.57126 24980 ft 378 kts 311°
2026-05-07 23:07 38.89028 -103.59583 24381 ft 376 kts 311°
2026-05-07 23:08 38.90769 -103.62051 23775 ft 373 kts 311°
2026-05-07 23:08 38.92510 -103.64521 23171 ft 371 kts 311°
2026-05-07 23:08 38.94226 -103.66957 22621 ft 369 kts 310°
2026-05-07 23:08 38.95928 -103.69376 22068 ft 366 kts 311°
2026-05-07 23:09 38.97633 -103.71800 21513 ft 364 kts 311°
2026-05-07 23:09 38.99316 -103.74195 20972 ft 362 kts 311°
2026-05-07 23:09 39.00992 -103.76582 20422 ft 360 kts 311°
2026-05-07 23:09 39.02658 -103.78957 19959 ft 356 kts 311°
2026-05-07 23:10 39.04301 -103.81300 19516 ft 352 kts 311°
2026-05-07 23:10 39.05937 -103.83636 19064 ft 348 kts 311°
2026-05-07 23:10 39.07529 -103.85909 18623 ft 344 kts 311°
2026-05-07 23:10 39.09132 -103.88203 18171 ft 340 kts 311°
2026-05-07 23:11 39.10697 -103.90440 17726 ft 336 kts 311°
2026-05-07 23:11 39.12245 -103.92657 17281 ft 333 kts 311°
2026-05-07 23:11 39.13667 -103.94968 16829 ft 330 kts 302°
2026-05-07 23:11 39.14802 -103.97546 16352 ft 328 kts 299°
2026-05-07 23:12 39.15868 -104.00079 15887 ft 327 kts 299°
2026-05-07 23:12 39.16911 -104.02702 15274 ft 330 kts 296°
2026-05-07 23:12 39.17852 -104.05348 14884 ft 325 kts 295°
2026-05-07 23:12 39.18794 -104.08028 14665 ft 328 kts 295°
2026-05-07 23:13 39.19737 -104.10712 14529 ft 329 kts 295°
2026-05-07 23:13 39.20667 -104.13367 14394 ft 326 kts 295°
2026-05-07 23:13 39.21592 -104.16009 14269 ft 326 kts 295°
2026-05-07 23:13 39.22532 -104.18694 14134 ft 327 kts 295°
2026-05-07 23:14 39.23453 -104.21330 14002 ft 326 kts 295°
2026-05-07 23:14 39.24386 -104.24000 13857 ft 326 kts 295°
2026-05-07 23:14 39.25315 -104.26665 13715 ft 325 kts 295°
2026-05-07 23:14 39.26239 -104.29315 13589 ft 325 kts 295°
2026-05-07 23:15 39.27167 -104.31981 13461 ft 324 kts 295°
2026-05-07 23:15 39.28082 -104.34611 13323 ft 322 kts 295°
2026-05-07 23:15 39.28993 -104.37231 13197 ft 323 kts 295°
2026-05-07 23:15 39.29913 -104.39881 13098 ft 322 kts 295°
2026-05-07 23:16 39.30824 -104.42504 13090 ft 320 kts 295°
2026-05-07 23:16 39.31735 -104.45132 13085 ft 321 kts 295°
2026-05-07 23:16 39.32647 -104.47765 13097 ft 321 kts 295°
2026-05-07 23:16 39.33559 -104.50401 13082 ft 321 kts 295°
2026-05-07 23:17 39.34462 -104.53012 12904 ft 320 kts 295°
2026-05-07 23:17 39.35364 -104.55627 12649 ft 312 kts 295°
2026-05-07 23:17 39.36235 -104.58151 12394 ft 304 kts 295°
2026-05-07 23:17 39.37208 -104.60493 12151 ft 296 kts 301°
2026-05-07 23:18 39.38270 -104.62704 12073 ft 282 kts 308°
2026-05-07 23:18 39.39668 -104.64336 12062 ft 265 kts 326°
2026-05-07 23:18 39.41245 -104.65535 12060 ft 260 kts 330°
2026-05-07 23:18 39.42971 -104.66256 12037 ft 263 kts 353°
2026-05-07 23:19 39.44818 -104.66341 12027 ft 265 kts 356°
2026-05-07 23:19 39.46601 -104.66368 12023 ft 253 kts 356°
2026-05-07 23:19 39.48329 -104.66398 11976 ft 244 kts 356°
2026-05-07 23:19 39.50020 -104.66422 11675 ft 241 kts 356°
2026-05-07 23:20 39.51672 -104.66434 11379 ft 237 kts 356°
2026-05-07 23:20 39.53324 -104.66435 11080 ft 233 kts 357°
2026-05-07 23:20 39.54925 -104.66424 10786 ft 229 kts 357°
2026-05-07 23:20 39.56498 -104.66405 10500 ft 225 kts 357°
2026-05-07 23:21 39.58051 -104.66379 10215 ft 217 kts 358°
2026-05-07 23:21 39.59506 -104.66351 9949 ft 201 kts 358°
2026-05-07 23:21 39.60859 -104.66316 9679 ft 190 kts 358°
2026-05-07 23:21 39.62145 -104.66252 9308 ft 185 kts 359°
2026-05-07 23:22 39.63423 -104.66169 8986 ft 182 kts 358°
2026-05-07 23:22 39.64695 -104.66125 8798 ft 181 kts 357°
2026-05-07 23:22 39.65928 -104.66093 8608 ft 174 kts 356°
2026-05-07 23:22 39.67106 -104.66095 8345 ft 171 kts 355°
2026-05-07 23:23 39.68293 -104.66112 8110 ft 170 kts 355°
2026-05-07 23:23 39.69480 -104.66123 7875 ft 170 kts 354°
2026-05-07 23:23 39.70661 -104.66121 7653 ft 169 kts 355°
2026-05-07 23:23 39.71827 -104.66122 7435 ft 168 kts 355°
2026-05-07 23:24 39.72998 -104.66091 7277 ft 168 kts 355°
2026-05-07 23:24 39.74175 -104.66065 7078 ft 168 kts 354°
2026-05-07 23:24 39.75330 -104.66083 6884 ft 164 kts 354°
2026-05-07 23:24 39.76483 -104.66082 6695 ft 166 kts 354°
2026-05-07 23:25 39.77631 -104.66070 6462 ft 165 kts 354°
2026-05-07 23:25 39.78773 -104.66067 6204 ft 166 kts 354°
2026-05-07 23:25 39.79943 -104.66061 6034 ft 168 kts 354°
2026-05-07 23:25 39.81128 -104.66074 5803 ft 171 kts 355°
2026-05-07 23:26 39.82310 -104.66048 5556 ft 169 kts 356°
2026-05-07 23:26 39.83453 -104.66052 5421 ft 152 kts 357°
2026-05-07 23:26 39.84356 -104.66036 5409 ft 108 kts
2026-05-07 23:26 39.84951 -104.66020 5412 ft 64 kts
2026-05-07 23:27 39.85618 -104.66022 5424 ft 19 kts
2026-05-07 23:27 39.85670 -104.66054 5425 ft 5 kts 298°
2026-05-07 23:27 39.85674 -104.66076 5426 ft 0 kts 275°
2026-05-07 23:28 39.85675 -104.66090 5427 ft 2 kts 273°
2026-05-07 23:28 39.85676 -104.66123 5429 ft 4 kts 272°
2026-05-07 23:28 39.85677 -104.66166 5431 ft 2 kts 272°
2026-05-07 23:28 39.85677 -104.66174 5432 ft 5 kts 270°
2026-05-07 23:29 39.85677 -104.66218 5433 ft 2 kts 261°
2026-05-07 23:29 39.85671 -104.66230 5433 ft 1 kts 220°
2026-05-07 23:29 39.85654 -104.66235 5433 ft 5 kts 182°
2026-05-07 23:29 39.85596 -104.66237 5432 ft 11 kts 181°
2026-05-07 23:30 39.85501 -104.66238 5429 ft 16 kts 180°
2026-05-07 23:30 39.85372 -104.66239 5425 ft 20 kts 180°
2026-05-07 23:30 39.85224 -104.66241 5422 ft 22 kts 180°
2026-05-07 23:30 39.85054 -104.66243 5415 ft 25 kts 179°
2026-05-07 23:31 39.84878 -104.66245 5409 ft 24 kts 181°
2026-05-07 23:31 39.84708 -104.66248 5405 ft 23 kts 180°
2026-05-07 23:31 39.84541 -104.66248 5402 ft 25 kts 180°
2026-05-07 23:31 39.84357 -104.66252 5401 ft 27 kts 180°
2026-05-07 23:32 39.84178 -104.66256 5406 ft 23 kts 180°
2026-05-07 23:32 39.84029 -104.66256 5410 ft 19 kts 179°
2026-05-07 23:32 39.83896 -104.66257 5412 ft 18 kts 180°
2026-05-07 23:32 39.83763 -104.66259 5412 ft 19 kts 180°
2026-05-07 23:33 39.83625 -104.66259 5412 ft 19 kts 180°
2026-05-07 23:33 39.83485 -104.66260 5412 ft 19 kts 180°
2026-05-07 23:33 39.83363 -104.66263 5415 ft 15 kts 181°
2026-05-07 23:33 39.83262 -104.66265 5418 ft 14 kts 180°
2026-05-07 23:34 39.83161 -104.66266 5420 ft 14 kts 180°
2026-05-07 23:34 39.83052 -104.66266 5421 ft 15 kts 179°
2026-05-07 23:34 39.82961 -104.66277 5423 ft 11 kts 210°
2026-05-07 23:34 39.82933 -104.66379 5421 ft 14 kts 271°
2026-05-07 23:35 39.82935 -104.66520 5418 ft 17 kts 270°
2026-05-07 23:35 39.82937 -104.66706 5409 ft 23 kts 270°
2026-05-07 23:35 39.82938 -104.66921 5403 ft 23 kts 270°
2026-05-07 23:35 39.82946 -104.67122 5401 ft 20 kts 282°
2026-05-07 23:36 39.82999 -104.67282 5399 ft 17 kts 291°
2026-05-07 23:36 39.83061 -104.67342 5395 ft 12 kts 357°
2026-05-07 23:36 39.83091 -104.67342 5394 ft 0 kts